Other Public Products
Issued by NWS Grand Forks, ND

Home | Current Version | Previous Version | Text Only | Print | Product List | Glossary On
Versions: 1 2 3 4 5 6 7 8 9 10 11 12 13 14 15 16 17 18 19 20 21 22 23 24 25 26 27 28 29 30 31 32 33 34 35 36 37 38 39 40 41 42 43 44 45 46 47 48 49 50
000
FPUS83 KFGF 012131
OPUFGF
PRAIRIE TO PINES WEATHER ROUNDUP
NATIONAL WEATHER SERVICE EASTERN NORTH DAKOTA/GRAND FORKS ND
300 PM CST SUN MAR 01 2015

 **SATELLITE DATA USED TO AUGMENT SKY COVER AT AUTOMATED STATIONS**
 *****  WEATHER ACROSS EASTERN NORTH DAKOTA  *****

CITY           SKY/WX    TMP DP  RH WIND       PRES   REMARKS
GRAND FORKS    PTSUNNY   20  11  68 N13       30.24R WCI   7
GRAND FORKS AF FAIR      21   9  58 NW13      30.25R WCI   9
GRAND CITY NWS   N/A     23 N/A N/A NW12        N/A  WCI  12
BUXTON         NOT AVBL
DEVILS LAKE    SUNNY     18   7  62 NW14      30.24R WCI   4
FARGO          CLOUDY    22  12  65 NW18      30.24R WCI   7
WAHPETON ARPT  CLOUDY    23  14  68 NW17G23   30.26R WCI   9
$$

 *****  WEATHER ACROSS CENTRAL AND WESTERN NORTH DAKOTA  *****

CITY           SKY/WX    TMP DP  RH WIND       PRES   REMARKS
JAMESTOWN      MOSUNNY   21  12  68 NW21      30.25R WCI   5
BISMARCK       MOSUNNY   26   9  48 NW16      30.30R WCI  14
MINOT          MOSUNNY   21  10  62 NW16      30.27S WCI   7
MINOT AFB      SUNNY     20  13  75 W15       30.27S WCI   6
GARRISON         N/A     21  12  68 NW15      30.28R WCI   8
WILLISTON      MOSUNNY   25  12  58 W13       30.30F WCI  14
DICKINSON      CLOUDY    24  10  55 NW12      30.25R WCI  13
HETTINGER      FLURRIES  26  12  55 NW15      30.26F WCI  14
$$

 *****  OTHER OBSERVATIONS NORTHEAST NORTH DAKOTA  *****

CITY           SKY/WX    TMP DP  RH WIND       PRES   REMARKS
WALHALLA         N/A     19   7  58 NW13      30.24R WCI   7
LANGDON        NOT AVBL
CAVALIER       FAIR      19   7  58 NW14G20   30.24R WCI   6
GRAFTON        NOT AVBL
CANDO          CLOUDY    18   9  68 NW12      30.24S WCI   5
FORT TOTTEN      N/A     22  10  58 N7        29.95  WCI  13
ROLLA          FAIR      18   1  49 NW16      30.21R WCI   3
RUGBY          FAIR      18  10  73 NW15      30.26R WCI   3
 ***** THE ABOVE OBSERVATIONS ARE NON NWS ARE NOT QUALITY
        CONTROLLED AND MAY MIS-REPORT RAIN FOR SNOW...
$$

 *****  OTHER OBSERVATIONS SOUTHEAST NORTH DAKOTA *****

CITY           SKY/WX    TMP DP  RH WIND       PRES   REMARKS
COOPERSTOWN    NOT AVBL
VALLEY CITY    FAIR      19  14  79 NW17G23   30.24R WCI   4
OAKES            N/A     23  14  68 NW20      30.27R WCI   8
GWINNER        CLEAR     27  14  59 NW20      30.27R WCI  13
SHEYENNE NWR     N/A     24  12  60 NW14      29.95  WCI  12
BUFFALO        NOT AVBL
WYNDMERE         N/A     21  12  68 NW16        N/A  WCI   7
 ***** THE ABOVE OBSERVATIONS ARE NON NWS ARE NOT QUALITY
       CONTROLLED AND MAY MIS-REPORT RAIN FOR SNOW...
$$

  *****  WEATHER ACROSS NORTHERN MINNESOTA  *****

CITY           SKY/WX    TMP DP  RH WIND       PRES   REMARKS
FLAG ISLAND    PTSUNNY   16   7  67 NW18      30.11R WCI  -1
WARROAD        CLOUDY    19  10  68 W12       30.14R WCI   7
ROSEAU         SUNNY     18  10  73 W13G20    30.15R WCI   4
HALLOCK        SUNNY     18  10  73 NW12      30.22R WCI   5
THF RVR FALLS  PTSUNNY   16  10  79 NW13      30.20R WCI   2
HALSTAD          N/A     20  12  70 NW14        N/A  WCI   7
FOSSTON        LGT SNOW  18   9  68 W13       30.20R WCI   4
BAUDETTE       CLOUDY    18   7  62 W13       30.10S WCI   5
WASKISH        CLOUDY    16  10  79 SW13      30.14R WCI   2
CROOKSTON      FLURRIES  18  12  79 N13       30.25R WCI   4
$$
  *****  WEATHER ACROSS CENTRAL AND WEST MINNESOTA  *****

CITY           SKY/WX    TMP DP  RH WIND       PRES   REMARKS
BEMIDJI        MOSUNNY   17   8  67 W17       30.15R WCI   2
PARK RAPIDS    CLOUDY    20  11  68 W18       30.14R WCI   5
WADENA         LGT SNOW  19  12  73 W12       30.18R WCI   7
DETROIT LAKES  LGT SNOW  19  16  86 NW13      30.20R WCI   7
MOORHEAD       LGT RAIN  21  16  79 NW17      30.25R WCI   7
FERGUS FALLS   FLURRIES  21  12  68 NW21G26   30.26R WCI   6
ELBOW LAKE     FLURRIES  23  16  75 NW17      30.22R WCI   9
MORRIS MN      FLURRIES  27  16  63 W23       30.22S WCI  12
STAPLES        CLOUDY    19  10  68 W14       30.18R WCI   6
WHEATON        NOT AVBL
$$
  *****  WEATHER ELSEWHERE ACROSS MINNESOTA  *****

CITY           SKY/WX    TMP DP  RH WIND       PRES   REMARKS
DULUTH         MOSUNNY   22   6  50 W17G28    30.06S WCI   8
INTRNTL FALLS  MOSUNNY   18   4  54 W16       30.08R WCI   3
ELY            MOSUNNY   19   3  49 W13G20    30.02S WCI   7
CLOQUET        PTSUNNY   21   5  49 W13G23    30.09S WCI   9
BRAINERD       PTSUNNY   23   8  52 W16       30.15F WCI  10
HIBBING        CLOUDY    22   7  52 W13G22    30.07S WCI  10
ALEXANDRIA     CLOUDY    23  13  65 W18G25    30.20S WCI   9
SAINT CLOUD    MOSUNNY   26   8  46 W18G25    30.19F WCI  13
MINNEAPOLIS    PTSUNNY   26   8  46 W17G28    30.23S WCI  13
$$

  *****  WEATHER ACROSS SOUTH DAKOTA  *****

CITY           SKY/WX    TMP DP  RH WIND       PRES   REMARKS
SIOUX FALLS    PTSUNNY   33  13  43 NW16G25   30.28S WCI  23
BROOKINGS      NOT AVBL
WATERTOWN      FLURRIES  25  16  68 W14G26    30.23S WCI  13
HURON          CLOUDY    29  19  66 NW17G24   30.31R WCI  17
SISSETON         N/A     26  15  63 NW22G30   30.24R WCI  12
ABERDEEN       PTSUNNY   29  17  61 NW24      30.30R WCI  15
MITCHELL       CLOUDY    34  10  37 NW20G29   30.32R WCI  23
PIERRE         CLOUDY    32   8  36 NW22      30.30R WCI  19
MOBRIDGE       PTSUNNY   30  16  56 NW18      30.27R WCI  18
RAPID CITY     SUNNY     27  14  58 N25       30.24F WCI  12
$$

  *****  SOME WEATHER IN NEARBY STATES *****

CITY           SKY/WX    TMP DP  RH WIND       PRES   REMARKS
GLASGOW MT     CLOUDY    28   8  43 W10       30.27F WCI  19
GREAT FALLS MT SUNNY     34  11  38 S16G23    30.10F WCI  24
CHEYENNE WY    PTSUNNY   25  12  58 VRB3      30.15F
SCOTTSBLUFF NE CLOUDY    34  12  40 VRB5      30.25F
OMAHA NE       MOSUNNY   39  16  39 VRB6      30.35F
DES MOINES IA  MOSUNNY   33  17  51 NW8       30.34S
DAVENPORT IA   MOSUNNY   25  15  66 W14       30.33F WCI  13
CHICAGO IL     PTSUNNY   25  15  66 SW12      30.27F WCI  14
EAU CLAIRE WI  SUNNY     25   6  44 W16       30.19S WCI  12
LA CROSSE WI   SUNNY     26   7  44 W16       30.25S WCI  14
$$

  *****  SOME NATIONAL WEATHER *****

CITY           SKY/WX    TMP DP  RH WIND       PRES   REMARKS
LA GUARDIA NY  SNOW      25  21  86 S7        30.41F VSB 1/4 WCI  17
RALEIGH NC     LGT RAIN  34  31  88 NE3       30.41F FOG
ATLANTA GA     DRZL/FOG  45  42  89 VRB5      30.39F VSB 1
NEW ORLEANS LA CLOUDY    66  60  81 E5        30.26S HAZE
OKLAHOMA CITY  CLOUDY    34  27  75 N12       30.35F
ALBUQUERQUE NM MOSUNNY   56  40  55 W3        30.05F
SALT LAKE CITY PTSUNNY   44  28  53 VRB3      30.05F
LOS ANGELES CA PTSUNNY   61  47  59 SE9G16    29.90F
BOISE ID       SUNNY     42  17  36 VRB3      30.15F
SEATTLE WA     CLOUDY    51  26  37 SW6       30.13F
$$

*** WEATHER ACROSS MANITOBA...SASKATCHEWAN AND ONTARIO ***
                ***ONTARIO***

CITY           SKY/WX    TMP DP  RH WIND       PRES   REMARKS
GERALDTON      FLURRIES  19   9  63 W10G17    29.88S WCI   8
THUNDER BAY    PTSUNNY   27   3  36 W13G22    29.97F WCI  16
SIOUX LOOKOUT  PTSUNNY   16   3  57 NW17G25   29.97R WCI   0
TORONTO        CLOUDY    25  19  80 SE6       30.22F WCI  18
BIG TROUT LK   CLOUDY     7  -4  61 NW17G25   29.86R WCI -12
PICKLE LAKE    FLURRIES  16   1  53 W16G22    29.85S WCI   0
DRYDEN         CLOUDY    16   5  62 NW14G24   29.99S WCI   1
KENORA         PTSUNNY   16   1  53 N14G21    30.05S WCI   1
$$
                *** MANITOBA***

CITY           SKY/WX    TMP DP  RH WIND       PRES   REMARKS
BRANDON        MOSUNNY   18   9  68 W12G18    30.21F WCI   5
DAUPHIN        SUNNY     19  10  68 W17       30.19R WCI   4
ISLAND LAKE    PTSUNNY    9  -4  56 W18G26    29.98R WCI -10
PILOT MOUND      N/A     16   7  67 W9          N/A  WCI   4
THE PAS        MOSUNNY   16  -2  45 NW17      30.15S WCI   0
THOMPSON       SUNNY      1 -13  51 W15       30.06R WCI -18
WINNIPEG       MOSUNNY   18   9  68 W16       30.20S WCI   3
LYNN LAKE      SUNNY      1 -11  55 W13G20    30.06S WCI -16
CHURCHILL      CRYSTALS -13 -24  58 NW24G32   29.96  WCI -41
GILLAM         SUNNY     -6 -15  65 W10       30.02R WCI -23
$$
                ***SASKATCHEWAN***

CITY           SKY/WX    TMP DP  RH WIND       PRES   REMARKS
ESTEVAN        MOSUNNY   18  12  79 W14       30.27S WCI   4
KINDERSLEY     MOSUNNY   21  16  79 S12       30.16F WCI   9
LLOYDMINSTER   SUNNY     18  10  73 S10       30.09  WCI   6
PRINCE ALBERT  MOSUNNY   19   1  45 VRB2      30.20F
REGINA         MOSUNNY   16  10  79 W12       30.25F WCI   3



USA.gov is the U.S. government's official web portal to all federal, state and local government web resources and services.